Regional Weather Roundup
Issued by NWS

Home | Current Version | Previous Version | Graphics & Text | Print | Product List | Glossary On
Versions: 1 2 3 4 5 6 7 8 9 10 11 12 13 14 15 16 17 18 19 20 21 22 23 24 25 26 27 28
000
ASUS45 KSLC 310710
RWRUT

UTAH REGIONAL WEATHER ROUNDUP
NATIONAL WEATHER SERVICE SALT LAKE CITY UT
100 AM MDT TUE MAY 31 2016

UTZ001>011-023>025-310800-

NORTHERN UTAH

CITY           SKY/WX    TMP DP  RH WIND       PRES   REMARKS
BRIGHAM CITY     N/A     58  34  40 NW8       30.08S
HILL AFB       CLEAR     59  36  42 NW2       30.08S
LOGAN          CLEAR     48  41  76 W6        30.10S
OGDEN          CLEAR     57  37  47 N5        30.07S
PROVO AIRPORT  CLEAR     55  37  50 CALM      30.07S
SALT LAKE CITY PTCLDY    62  43  49 SW3       30.05S
VERNAL         CLEAR     57  31  37 CALM      30.06S
WENDOVER       CLEAR     64  34  32 N8        30.10S
HEBER CITY     CLEAR     41  34  75 CALM      30.11S
WEST JORDAN    CLEAR     61  34  36 W14       30.08F

$$

UTZ012>022-026-027-310800-

SOUTHERN/CENTRAL UTAH

CITY           SKY/WX    TMP DP  RH WIND       PRES   REMARKS
BLANDING       CLEAR     53  23  31 NW5       30.10S
BRYCE CANYON   CLEAR     37  30  75 SE5       30.19F WCI  33
CEDAR CITY     CLEAR     53  31  42 CALM      30.08R
DELTA          CLEAR     55  34  44 N3        30.06S
HANKSVILLE     CLEAR     63  32  31 NW3       29.99S
MILFORD        CLEAR     56  29  35 NW9       30.06S
MOAB/CYNLANDS  PTCLDY    63  28  26 W5        29.94S
PRICE          CLEAR     57  27  31 NW8       30.08S
ST GEORGE      SUNNY     72  30  21 CALM      29.92S

$$

REGIONAL REPORTS     COLORADO/ARIZONA

CITY           SKY/WX    TMP DP  RH WIND       PRES   REMARKS
CRAIG, CO      PTCLDY    49  35  58 CALM      30.12F
GRAND JUNCTION CLEAR     59  34  39 SE8       30.00F
RIFLE          CLEAR     47  34  60 NE6       30.09F
MONTROSE       CLOUDY    54  33  45 SE10      30.08F
CORTEZ         CLEAR     46  29  51 E6        30.04F
PAGE, AZ       CLEAR     69  31  24 W5        29.95S
GRAND CANYON   PTCLDY    40  25  55 CALM      30.12F
KINGMAN        PTCLDY    64  25  22 S5        29.91F
FLAGSTAFF      CLEAR     41  27  57 CALM      30.13F

$$

REGIONAL REPORTS    NEVADA/IDAHO/WYOMING

CITY           SKY/WX    TMP DP  RH WIND       PRES   REMARKS
LAS VEGAS, NV  MOCLDY    84  33  16 W6        29.77F
ELY            CLEAR     44  31  60 CALM      30.16F
ELKO           CLEAR     55  34  45 E6        30.14R
POCATELLO, ID  CLEAR     58  28  32 SW12      30.10S
BURLEY         CLEAR     50  30  46 SW10      30.08S
EVANSTON, WY   CLEAR     48  37  65 E5        30.19F
ROCK SPRINGS   CLEAR     44  37  76 NE8       30.18S
KEMMERER         N/A     43  28  56 NE3       30.20F

$$




USA.gov is the U.S. government's official web portal to all federal, state and local government web resources and services.